Regional Weather Roundup
Issued by NWS

Home | Current Version | Previous Version | Text Only | Print | Product List | Glossary Off
Versions: 1 2 3 4 5 6 7 8 9 10 11 12 13 14 15 16 17 18 19 20 21 22 23 24 25 26 27

000
ASUS45 KCYS 190110
RWRWY

WYOMING REGIONAL WEATHER ROUNDUP
NATIONAL WEATHER SERVICE CHEYENNE WY
700 PM MDT FRI AUG 18 2017

NOTE:  "FAIR" INDICATES FEW OR NO CLOUDS BELOW 12,000 FEET
WITH NO SIGNIFICANT WEATHER AND/OR OBSTRUCTIONS TO VISIBILITY.

WYZ001-190200-
YELLOWSTONE NATIONAL PARK

CITY           SKY/WX    TMP DP  RH WIND       PRES   REMARKS
LK YELLOWSTONE   N/A     69  29  22 VRB5      30.31F
W YELLOWSTONE  NOT AVBL

$$
WYZ002>013-054>058-071-098>099-190200-
NORTHERN WYOMING

CITY           SKY/WX    TMP DP  RH WIND       PRES   REMARKS
JACKSON        FAIR      77  33  20 W9G17     30.20S
CODY           FAIR      84  36  18 E12       30.03
GREYBULL       FAIR      89  33  13 CALM      29.94F
WORLAND        FAIR      88  29  12 E8        29.96F
SHERIDAN       FAIR      87  35  15 CALM      29.96F
BUFFALO        FAIR      84  33  16 NE7       30.05S
GILLETTE       FAIR      85  32  15 NE8       29.99F
HULETT         FAIR      82  32  16 CALM      30.02F
NEWCASTLE      FAIR      82  34  17 E3        30.02F

$$
WYZ014>020-022>026-101>103-190200-
CENTRAL WYOMING

CITY           SKY/WX    TMP DP  RH WIND       PRES   REMARKS
BIG PINEY      FAIR      77  28  16 NW12      30.24S
PINEDALE       FAIR      75  25  15 NW12G21   30.25S
DUBOIS         FAIR      73  25  16 NW14G25   30.23S
LANDER           N/A    N/A N/A N/A MISG      30.05F
RIVERTON       FAIR      83  31  15 E6        30.07F
CASPER         FAIR      84  27  12 W13       30.06F
DOUGLAS        FAIR      82  39  21 S6        30.07S

$$
WYZ021-027>030-104>119-190200-
SOUTHERN WYOMING

CITY           SKY/WX    TMP DP  RH WIND       PRES   REMARKS
EVANSTON       FAIR      76  29  17 W20       30.28F
KEMMERER         N/A    N/A N/A N/A W17G25    30.29F
FORT BRIDGER   FAIR      79  26  14 W18G25    30.29F
ROCK SPRINGS   FAIR      81  22  11 W18       30.21S
RAWLINS        FAIR      79  26  14 W14G23    30.22S
SARATOGA       FAIR      77  32  19 SW9G17    30.25F
LARAMIE        FAIR      76  30  18 NW13      30.26S
CHEYENNE       FAIR      78  43  28 S10       30.18S
TORRINGTON     FAIR      81  45  28 SE8       30.02F
PINE BLUFFS    FAIR      79  41  25 S6        30.12S

$$




USA.gov is the U.S. government's official web portal to all federal, state and local government web resources and services.